Wrangell, AK

12:16 PM AKST on December 03, 2016 (GMT -0900)
Wrangell

Weather History for PAWG - February, 2013

Change the Weather History Date:

Thursday, February 14, 2013

  Actual Average Record
Temperature  
Mean Temperature 40 °F -  
Max Temperature 42 °F 38 °F 49 °F (1991)
Min Temperature 37 °F 25 °F -2 °F (1954)
Degree Days  
Heating Degree Days 26    
Moisture  
Dew Point 34 °F    
Average Humidity 83    
Maximum Humidity 87    
Minimum Humidity 75    
Precipitation  
Precipitation 1.04 in - - ()
Sea Level Pressure  
Sea Level Pressure 30.14 in    
Wind  
Wind Speed 13 mph (East)    
Max Wind Speed 22 mph    
Max Gust Speed 34 mph    
Visibility 9 miles    
Events Rain    
Averages and records for this station are not official NWS values.
T = Trace of Precipitation, MM = Missing Value Source: NWS Daily Summary

Daily Weather History Graph

Daily Weather History Graph

Search for Another Location

Airport or City:

Trip Planner

Search our weather history database for the weather conditions in past years. The results will help you decide how hot, cold, wet, or windy it might be!

Date:

Astronomy

Feb. 14, 2013 Rise Set
Actual Time 7:17 AM AKST 4:50 PM AKST
Civil Twilight 6:37 AM AKST 5:30 PM AKST
Nautical Twilight 5:53 AM AKST 6:14 PM AKST
Astronomical Twilight 5:10 AM AKST 6:58 PM AKST
Moon 8:19 AM AKST (2/14) 11:12 PM AKST (2/14)
Length of Visible Light 10h 52m
Length of Day
9h 33m
Waxing Crescent, 23% of the Moon is Illuminated
Feb 14
Waxing Crescent
Feb 17
First Quarter
Feb 25
Full
Mar 4
Last Quarter
Mar 11
New

Hourly Weather History & Observations

Time (AKST) Temp. Windchill Dew Point Humidity Pressure Visibility Wind Dir Wind Speed Gust Speed Precip Events Conditions
12:16 AM 37.4 °F 30.3 °F 30.2 °F 75% 30.22 in 10.0 mi East 10.4 mph 20.7 mph N/A   Overcast
12:36 AM 37.4 °F 30.8 °F 30.2 °F 75% 30.23 in 10.0 mi ENE 9.2 mph - N/A   Overcast
12:56 AM 37.4 °F 30.3 °F 32.0 °F 81% 30.23 in 10.0 mi ENE 10.4 mph - N/A   Overcast
1:16 AM 37.4 °F 30.8 °F 32.0 °F 81% 30.23 in 10.0 mi East 9.2 mph - N/A   Overcast
1:36 AM 37.4 °F 30.8 °F 32.0 °F 81% 30.24 in 10.0 mi East 9.2 mph - N/A   Overcast
1:56 AM 37.4 °F 30.8 °F 32.0 °F 81% 30.25 in 10.0 mi East 9.2 mph - N/A   Overcast
2:16 AM 37.4 °F 29.8 °F 32.0 °F 81% 30.24 in 10.0 mi East 11.5 mph - N/A   Overcast
2:56 AM 37.4 °F 29.3 °F 32.0 °F 81% 30.23 in 10.0 mi East 12.7 mph 18.4 mph N/A   Overcast
6:30 AM 37.4 °F 29.3 °F 33.8 °F 87% 30.21 in 10.0 mi ENE 12.7 mph - N/A   Overcast
6:50 AM 37.4 °F 28.5 °F 33.8 °F 87% 30.19 in 10.0 mi ENE 15.0 mph - N/A Rain Light Rain
6:56 AM 37.4 °F 28.9 °F 33.8 °F 87% 30.19 in 10.0 mi East 13.8 mph - N/A   Overcast
7:16 AM 37.4 °F 29.3 °F 33.8 °F 87% 30.20 in 10.0 mi East 12.7 mph - N/A   Overcast
7:36 AM 37.4 °F 29.3 °F 33.8 °F 87% 30.20 in 10.0 mi East 12.7 mph - N/A   Overcast
7:56 AM 39.2 °F 31.2 °F 33.8 °F 81% 30.19 in 10.0 mi East 13.8 mph 20.7 mph N/A   Overcast
8:16 AM 39.2 °F 30.5 °F 33.8 °F 81% 30.18 in 10.0 mi East 16.1 mph 19.6 mph N/A   Overcast
8:36 AM 39.2 °F 32.0 °F 33.8 °F 81% 30.18 in 10.0 mi East 11.5 mph 17.3 mph N/A   Overcast
8:56 AM 39.2 °F 31.2 °F 33.8 °F 81% 30.18 in 10.0 mi East 13.8 mph 18.4 mph N/A   Overcast
9:16 AM 39.2 °F 30.8 °F 33.8 °F 81% 30.17 in 10.0 mi East 15.0 mph - N/A   Overcast
9:36 AM 39.2 °F 31.6 °F 33.8 °F 81% 30.18 in 10.0 mi East 12.7 mph 19.6 mph N/A   Overcast
9:56 AM 39.2 °F 31.2 °F 33.8 °F 81% 30.17 in 10.0 mi East 13.8 mph 21.9 mph 0.01 in   Overcast
10:16 AM 39.2 °F 31.6 °F 33.8 °F 81% 30.17 in 10.0 mi East 12.7 mph 19.6 mph N/A   Overcast
10:36 AM 41.0 °F 33.1 °F 35.6 °F 81% 30.17 in 10.0 mi ESE 15.0 mph - 0.01 in   Overcast
10:56 AM 39.2 °F 33.6 °F 33.8 °F 81% 30.19 in 10.0 mi SE 8.1 mph 16.1 mph 0.02 in   Overcast
11:16 AM 39.2 °F 32.0 °F 35.6 °F 87% 30.18 in 10.0 mi East 11.5 mph 16.1 mph N/A   Overcast
11:36 AM 39.2 °F 31.2 °F 35.6 °F 87% 30.17 in 10.0 mi East 13.8 mph 19.6 mph N/A   Overcast
11:56 AM 39.2 °F 31.2 °F 33.8 °F 81% 30.18 in 10.0 mi East 13.8 mph 19.6 mph N/A   Overcast
12:16 PM 41.0 °F 33.9 °F 33.8 °F 76% 30.18 in 10.0 mi ESE 12.7 mph 17.3 mph N/A   Overcast
12:36 PM 41.0 °F 33.9 °F 33.8 °F 76% 30.17 in 10.0 mi ESE 12.7 mph 20.7 mph N/A   Overcast
12:56 PM 41.0 °F 34.3 °F 35.6 °F 81% 30.17 in 10.0 mi ESE 11.5 mph - 0.04 in   Overcast
1:16 PM 39.2 °F 31.6 °F 35.6 °F 87% 30.17 in 7.0 mi East 12.7 mph - 0.04 in   Overcast
1:36 PM 39.2 °F 37.0 °F 35.6 °F 87% 30.17 in 7.0 mi ENE 3.5 mph - 0.06 in   Overcast
1:56 PM 39.2 °F 30.8 °F 33.8 °F 81% 30.17 in 7.0 mi ESE 15.0 mph 18.4 mph 0.09 in   Overcast
2:16 PM 39.2 °F 30.5 °F 35.6 °F 87% 30.16 in 7.0 mi ESE 16.1 mph 20.7 mph N/A   Overcast
2:36 PM 39.2 °F 31.2 °F 33.8 °F 81% 30.15 in 7.0 mi East 13.8 mph 19.6 mph 0.02 in   Overcast
2:56 PM 39.2 °F 29.6 °F 33.8 °F 81% 30.13 in 7.0 mi ESE 19.6 mph 25.3 mph 0.03 in   Overcast
3:16 PM 39.2 °F 30.2 °F 35.6 °F 87% 30.13 in 7.0 mi East 17.3 mph 23.0 mph N/A   Overcast
3:36 PM 39.2 °F 30.8 °F 35.6 °F 87% 30.12 in 7.0 mi ESE 15.0 mph 21.9 mph N/A   Overcast
3:56 PM 39.2 °F - 33.8 °F 81% 30.15 in 7.0 mi Calm Calm - 0.02 in   Overcast
4:16 PM 39.2 °F 35.9 °F 33.8 °F 81% 30.15 in 7.0 mi West 4.6 mph - 0.01 in   Overcast
4:36 PM 39.2 °F 33.0 °F 35.6 °F 87% 30.15 in 7.0 mi East 9.2 mph - 0.03 in   Overcast
4:56 PM 39.2 °F 32.0 °F 35.6 °F 87% 30.14 in 9.0 mi East 11.5 mph - 0.05 in   Overcast
5:16 PM 39.2 °F 30.5 °F 35.6 °F 87% 30.13 in 9.0 mi East 16.1 mph 21.9 mph 0.03 in   Overcast
5:36 PM 39.2 °F 30.5 °F 35.6 °F 87% 30.13 in 9.0 mi East 16.1 mph - 0.07 in   Overcast
5:56 PM 39.2 °F 30.8 °F 35.6 °F 87% 30.13 in 9.0 mi East 15.0 mph - 0.10 in   Overcast
6:16 PM 39.2 °F 30.5 °F 35.6 °F 87% 30.12 in 9.0 mi East 16.1 mph - 0.04 in   Overcast
6:36 PM 39.2 °F 30.8 °F 35.6 °F 87% 30.13 in 9.0 mi East 15.0 mph 20.7 mph 0.05 in   Overcast
6:56 PM 39.2 °F 30.2 °F 35.6 °F 87% 30.12 in 9.0 mi East 17.3 mph 23.0 mph 0.08 in   Overcast
7:16 PM 39.2 °F 30.2 °F 35.6 °F 87% 30.11 in 9.0 mi East 17.3 mph - 0.01 in   Overcast
7:36 PM 39.2 °F 30.2 °F 35.6 °F 87% 30.08 in 9.0 mi East 17.3 mph 24.2 mph 0.02 in   Overcast
7:56 PM 39.2 °F 30.2 °F 35.6 °F 87% 30.08 in 9.0 mi East 17.3 mph 23.0 mph 0.03 in   Mostly Cloudy
8:16 PM 39.2 °F 30.8 °F 35.6 °F 87% 30.06 in 9.0 mi East 15.0 mph - 0.02 in   Mostly Cloudy
8:36 PM 39.2 °F 31.2 °F 35.6 °F 87% 30.07 in 9.0 mi East 13.8 mph - 0.03 in   Mostly Cloudy
8:56 PM 41.0 °F 32.8 °F 35.6 °F 81% 30.06 in 9.0 mi SE 16.1 mph - 0.06 in   Overcast
9:16 PM 42.8 °F 35.8 °F 37.4 °F 81% 30.06 in 9.0 mi ESE 13.8 mph 19.6 mph 0.04 in   Overcast
9:36 PM 39.2 °F 30.5 °F 35.6 °F 87% 30.05 in 9.0 mi ESE 16.1 mph 21.9 mph 0.11 in   Overcast
9:56 PM 41.0 °F 31.6 °F 35.6 °F 81% 30.02 in 9.0 mi ESE 20.7 mph 26.5 mph 0.20 in   Overcast
10:16 PM 42.8 °F 33.8 °F 35.6 °F 76% 30.02 in 9.0 mi ESE 21.9 mph 29.9 mph 0.05 in   Overcast
10:36 PM 42.8 °F 34.5 °F 35.6 °F 76% 30.02 in 9.0 mi ESE 18.4 mph 28.8 mph 0.09 in   Overcast
10:56 PM 42.8 °F 34.3 °F 35.6 °F 76% 30.03 in 9.0 mi ESE 19.6 mph 28.8 mph 0.16 in   Overcast
11:16 PM 42.8 °F 33.8 °F 35.6 °F 76% 30.02 in 8.0 mi ESE 21.9 mph 31.1 mph 0.05 in   Overcast
11:36 PM 42.8 °F 33.8 °F 35.6 °F 76% 30.01 in 7.0 mi ESE 21.9 mph 34.5 mph 0.07 in   Overcast
11:56 PM 42.8 °F 34.5 °F 35.6 °F 76% 30.01 in 7.0 mi SE 18.4 mph 32.2 mph 0.15 in   Overcast